﻿測定場所 (Monitoring sites),日付 (Measurement date),時間 (Measurement time),線量率 最大値 (max) μGy/h,線量率 最小値 (min) μGy/h,線量率 平均値 (average) μGy/h,
大田 (Ota),2022-10-09,23:01～24:00,0.0458,0.0391,0.0419,
大田 (Ota),2022-10-09,22:01～23:00,0.0471,0.0390,0.0424,
大田 (Ota),2022-10-09,21:01～22:00,0.0426,0.0381,0.0404,
大田 (Ota),2022-10-09,20:01～21:00,0.0434,0.0353,0.0394,
大田 (Ota),2022-10-09,19:01～20:00,0.0492,0.0391,0.0446,
大田 (Ota),2022-10-09,18:01～19:00,0.0511,0.0458,0.0489,
大田 (Ota),2022-10-09,17:01～18:00,0.0491,0.0417,0.0453,
大田 (Ota),2022-10-09,16:01～17:00,0.0444,0.0335,0.0387,
大田 (Ota),2022-10-09,15:01～16:00,0.0353,0.0311,0.0334,
大田 (Ota),2022-10-09,14:01～15:00,0.0363,0.0311,0.0333,
大田 (Ota),2022-10-09,13:01～14:00,0.0361,0.0308,0.0333,
大田 (Ota),2022-10-09,12:01～13:00,0.0355,0.0304,0.0332,
大田 (Ota),2022-10-09,11:01～12:00,0.0365,0.0308,0.0335,
大田 (Ota),2022-10-09,10:01～11:00,0.0357,0.0314,0.0334,
大田 (Ota),2022-10-09,09:01～10:00,0.0348,0.0311,0.0331,
大田 (Ota),2022-10-09,08:01～09:00,0.0360,0.0308,0.0332,
大田 (Ota),2022-10-09,07:01～08:00,0.0358,0.0308,0.0335,
大田 (Ota),2022-10-09,06:01～07:00,0.0360,0.0304,0.0333,
大田 (Ota),2022-10-09,05:01～06:00,0.0348,0.0314,0.0333,
大田 (Ota),2022-10-09,04:01～05:00,0.0350,0.0314,0.0331,
大田 (Ota),2022-10-09,03:01～04:00,0.0357,0.0315,0.0335,
大田 (Ota),2022-10-09,02:01～03:00,0.0360,0.0304,0.0332,
大田 (Ota),2022-10-09,01:01～02:00,0.0353,0.0311,0.0332,
大田 (Ota),2022-10-09,00:01～01:00,0.0361,0.0311,0.0332,
大田 (Ota),2022-10-08,23:01～24:00,0.0365,0.0312,0.0330,
大田 (Ota),2022-10-08,22:01～23:00,0.0356,0.0309,0.0331,
大田 (Ota),2022-10-08,21:01～22:00,0.0353,0.0310,0.0335,
大田 (Ota),2022-10-08,20:01～21:00,0.0354,0.0314,0.0333,
大田 (Ota),2022-10-08,19:01～20:00,0.0350,0.0308,0.0332,
大田 (Ota),2022-10-08,18:01～19:00,0.0357,0.0300,0.0332,
大田 (Ota),2022-10-08,17:01～18:00,0.0370,0.0315,0.0339,
大田 (Ota),2022-10-08,16:01～17:00,0.0360,0.0318,0.0339,
大田 (Ota),2022-10-08,15:01～16:00,0.0353,0.0310,0.0337,
大田 (Ota),2022-10-08,14:01～15:00,0.0357,0.0315,0.0335,
大田 (Ota),2022-10-08,13:01～14:00,0.0357,0.0319,0.0338,
大田 (Ota),2022-10-08,12:01～13:00,0.0360,0.0322,0.0339,
大田 (Ota),2022-10-08,11:01～12:00,0.0363,0.0315,0.0335,
大田 (Ota),2022-10-08,10:01～11:00,0.0351,0.0307,0.0332,
大田 (Ota),2022-10-08,09:01～10:00,0.0353,0.0308,0.0333,
大田 (Ota),2022-10-08,08:01～09:00,0.0360,0.0304,0.0332,
大田 (Ota),2022-10-08,07:01～08:00,0.0358,0.0306,0.0334,
大田 (Ota),2022-10-08,06:01～07:00,0.0363,0.0309,0.0338,
大田 (Ota),2022-10-08,05:01～06:00,0.0353,0.0304,0.0331,
大田 (Ota),2022-10-08,04:01～05:00,0.0364,0.0305,0.0332,
大田 (Ota),2022-10-08,03:01～04:00,0.0353,0.0308,0.0330,
大田 (Ota),2022-10-08,02:01～03:00,0.0358,0.0305,0.0332,
大田 (Ota),2022-10-08,01:01～02:00,0.0354,0.0311,0.0334,
大田 (Ota),2022-10-08,00:01～01:00,0.0360,0.0304,0.0337,
大田 (Ota),2022-10-07,23:01～24:00,0.0372,0.0322,0.0349,
大田 (Ota),2022-10-07,22:01～23:00,0.0413,0.0339,0.0381,
大田 (Ota),2022-10-07,21:01～22:00,0.0425,0.0373,0.0406,
大田 (Ota),2022-10-07,20:01～21:00,0.0402,0.0328,0.0368,
大田 (Ota),2022-10-07,19:01～20:00,0.0520,0.0372,0.0429,
大田 (Ota),2022-10-07,18:01～19:00,0.0701,0.0492,0.0599,
大田 (Ota),2022-10-07,17:01～18:00,0.0701,0.0617,0.0651,
大田 (Ota),2022-10-07,16:01～17:00,0.0659,0.0584,0.0619,
大田 (Ota),2022-10-07,15:01～16:00,0.0629,0.0565,0.0594,
大田 (Ota),2022-10-07,14:01～15:00,0.0632,0.0565,0.0594,
大田 (Ota),2022-10-07,13:01～14:00,0.0603,0.0540,0.0570,
大田 (Ota),2022-10-07,12:01～13:00,0.0583,0.0511,0.0540,
大田 (Ota),2022-10-07,11:01～12:00,0.0576,0.0475,0.0518,
大田 (Ota),2022-10-07,10:01～11:00,0.0520,0.0436,0.0472,
大田 (Ota),2022-10-07,09:01～10:00,0.0487,0.0432,0.0460,
大田 (Ota),2022-10-07,08:01～09:00,0.0485,0.0409,0.0448,
大田 (Ota),2022-10-07,07:01～08:00,0.0450,0.0318,0.0362,
大田 (Ota),2022-10-07,06:01～07:00,0.0370,0.0314,0.0338,
大田 (Ota),2022-10-07,05:01～06:00,0.0366,0.0321,0.0339,
大田 (Ota),2022-10-07,04:01～05:00,0.0375,0.0320,0.0339,
大田 (Ota),2022-10-07,03:01～04:00,0.0364,0.0318,0.0338,
大田 (Ota),2022-10-07,02:01～03:00,0.0362,0.0311,0.0338,
大田 (Ota),2022-10-07,01:01～02:00,0.0357,0.0316,0.0337,
大田 (Ota),2022-10-07,00:01～01:00,0.0357,0.0313,0.0338,
大田 (Ota),2022-10-06,23:01～24:00,0.0356,0.0308,0.0335,
大田 (Ota),2022-10-06,22:01～23:00,0.0358,0.0309,0.0337,
大田 (Ota),2022-10-06,21:01～22:00,0.0361,0.0312,0.0335,
大田 (Ota),2022-10-06,20:01～21:00,0.0367,0.0311,0.0338,
大田 (Ota),2022-10-06,19:01～20:00,0.0368,0.0304,0.0339,
大田 (Ota),2022-10-06,18:01～19:00,0.0376,0.0319,0.0351,
大田 (Ota),2022-10-06,17:01～18:00,0.0453,0.0355,0.0397,
大田 (Ota),2022-10-06,16:01～17:00,0.0562,0.0440,0.0493,
大田 (Ota),2022-10-06,15:01～16:00,0.0610,0.0523,0.0563,
大田 (Ota),2022-10-06,14:01～15:00,0.0588,0.0474,0.0532,
大田 (Ota),2022-10-06,13:01～14:00,0.0497,0.0430,0.0471,
大田 (Ota),2022-10-06,12:01～13:00,0.0462,0.0353,0.0401,
大田 (Ota),2022-10-06,11:01～12:00,0.0426,0.0345,0.0399,
大田 (Ota),2022-10-06,10:01～11:00,0.0392,0.0353,0.0371,
大田 (Ota),2022-10-06,09:01～10:00,0.0400,0.0331,0.0365,
大田 (Ota),2022-10-06,08:01～09:00,0.0447,0.0361,0.0403,
大田 (Ota),2022-10-06,07:01～08:00,0.0444,0.0387,0.0413,
大田 (Ota),2022-10-06,06:01～07:00,0.0390,0.0325,0.0350,
大田 (Ota),2022-10-06,05:01～06:00,0.0379,0.0321,0.0349,
大田 (Ota),2022-10-06,04:01～05:00,0.0391,0.0325,0.0356,
大田 (Ota),2022-10-06,03:01～04:00,0.0420,0.0353,0.0385,
大田 (Ota),2022-10-06,02:01～03:00,0.0416,0.0339,0.0376,
大田 (Ota),2022-10-06,01:01～02:00,0.0445,0.0359,0.0400,
大田 (Ota),2022-10-06,00:01～01:00,0.0490,0.0407,0.0449,
大田 (Ota),2022-10-05,23:01～24:00,0.0475,0.0416,0.0445,
大田 (Ota),2022-10-05,22:01～23:00,0.0557,0.0434,0.0493,
大田 (Ota),2022-10-05,21:01～22:00,0.0572,0.0490,0.0535,
大田 (Ota),2022-10-05,20:01～21:00,0.0540,0.0444,0.0489,
大田 (Ota),2022-10-05,19:01～20:00,0.0568,0.0452,0.0519,
大田 (Ota),2022-10-05,18:01～19:00,0.0499,0.0363,0.0424,
大田 (Ota),2022-10-05,17:01～18:00,0.0401,0.0334,0.0368,
大田 (Ota),2022-10-05,16:01～17:00,0.0394,0.0329,0.0358,
大田 (Ota),2022-10-05,15:01～16:00,0.0441,0.0345,0.0399,
大田 (Ota),2022-10-05,14:01～15:00,0.0537,0.0424,0.0470,
大田 (Ota),2022-10-05,13:01～14:00,0.0581,0.0503,0.0551,
大田 (Ota),2022-10-05,12:01～13:00,0.0542,0.0390,0.0438,
大田 (Ota),2022-10-05,11:01～12:00,0.0422,0.0331,0.0386,
大田 (Ota),2022-10-05,10:01～11:00,0.0383,0.0329,0.0355,
大田 (Ota),2022-10-05,09:01～10:00,0.0383,0.0332,0.0361,
大田 (Ota),2022-10-05,08:01～09:00,0.0398,0.0346,0.0368,
大田 (Ota),2022-10-05,07:01～08:00,0.0386,0.0338,0.0363,
大田 (Ota),2022-10-05,06:01～07:00,0.0380,0.0336,0.0358,
大田 (Ota),2022-10-05,05:01～06:00,0.0376,0.0330,0.0355,
大田 (Ota),2022-10-05,04:01～05:00,0.0365,0.0330,0.0347,
大田 (Ota),2022-10-05,03:01～04:00,0.0364,0.0325,0.0346,
大田 (Ota),2022-10-05,02:01～03:00,0.0377,0.0318,0.0345,
大田 (Ota),2022-10-05,01:01～02:00,0.0366,0.0325,0.0345,
大田 (Ota),2022-10-05,00:01～01:00,0.0374,0.0322,0.0345,
大田 (Ota),2022-10-04,23:01～24:00,0.0380,0.0324,0.0348,
大田 (Ota),2022-10-04,22:01～23:00,0.0366,0.0316,0.0343,
大田 (Ota),2022-10-04,21:01～22:00,0.0367,0.0329,0.0344,
大田 (Ota),2022-10-04,20:01～21:00,0.0365,0.0320,0.0345,
大田 (Ota),2022-10-04,19:01～20:00,0.0370,0.0327,0.0345,
大田 (Ota),2022-10-04,18:01～19:00,0.0374,0.0325,0.0347,
大田 (Ota),2022-10-04,17:01～18:00,0.0368,0.0323,0.0345,
大田 (Ota),2022-10-04,16:01～17:00,0.0367,0.0315,0.0342,
大田 (Ota),2022-10-04,15:01～16:00,0.0374,0.0318,0.0345,
大田 (Ota),2022-10-04,14:01～15:00,0.0367,0.0325,0.0345,
大田 (Ota),2022-10-04,13:01～14:00,0.0367,0.0315,0.0347,
大田 (Ota),2022-10-04,12:01～13:00,0.0377,0.0319,0.0347,
大田 (Ota),2022-10-04,11:01～12:00,0.0366,0.0322,0.0345,
大田 (Ota),2022-10-04,10:01～11:00,0.0363,0.0328,0.0346,
大田 (Ota),2022-10-04,09:01～10:00,0.0366,0.0330,0.0348,
大田 (Ota),2022-10-04,08:01～09:00,0.0376,0.0318,0.0346,
大田 (Ota),2022-10-04,07:01～08:00,0.0367,0.0311,0.0346,
大田 (Ota),2022-10-04,06:01～07:00,0.0369,0.0327,0.0345,
大田 (Ota),2022-10-04,05:01～06:00,0.0376,0.0317,0.0343,
大田 (Ota),2022-10-04,04:01～05:00,0.0376,0.0312,0.0342,
大田 (Ota),2022-10-04,03:01～04:00,0.0363,0.0315,0.0342,
大田 (Ota),2022-10-04,02:01～03:00,0.0369,0.0315,0.0346,
大田 (Ota),2022-10-04,01:01～02:00,0.0372,0.0309,0.0340,
大田 (Ota),2022-10-04,00:01～01:00,0.0360,0.0318,0.0342,
大田 (Ota),2022-10-03,23:01～24:00,0.0373,0.0318,0.0348,
大田 (Ota),2022-10-03,22:01～23:00,0.0370,0.0316,0.0343,
大田 (Ota),2022-10-03,21:01～22:00,0.0363,0.0319,0.0342,
大田 (Ota),2022-10-03,20:01～21:00,0.0370,0.0316,0.0342,
大田 (Ota),2022-10-03,19:01～20:00,0.0365,0.0318,0.0344,
大田 (Ota),2022-10-03,18:01～19:00,0.0371,0.0324,0.0344,
大田 (Ota),2022-10-03,17:01～18:00,0.0377,0.0322,0.0345,
大田 (Ota),2022-10-03,16:01～17:00,0.0376,0.0320,0.0350,
大田 (Ota),2022-10-03,15:01～16:00,0.0368,0.0320,0.0347,
大田 (Ota),2022-10-03,14:01～15:00,0.0366,0.0325,0.0346,
大田 (Ota),2022-10-03,13:01～14:00,0.0374,0.0318,0.0347,
大田 (Ota),2022-10-03,12:01～13:00,0.0377,0.0329,0.0347,
大田 (Ota),2022-10-03,11:01～12:00,0.0368,0.0326,0.0347,
大田 (Ota),2022-10-03,10:01～11:00,0.0375,0.0322,0.0348,
大田 (Ota),2022-10-03,09:01～10:00,0.0375,0.0318,0.0344,
大田 (Ota),2022-10-03,08:01～09:00,0.0364,0.0315,0.0345,
大田 (Ota),2022-10-03,07:01～08:00,0.0372,0.0319,0.0347,
大田 (Ota),2022-10-03,06:01～07:00,0.0374,0.0321,0.0346,
大田 (Ota),2022-10-03,05:01～06:00,0.0367,0.0318,0.0344,
大田 (Ota),2022-10-03,04:01～05:00,0.0374,0.0325,0.0345,
大田 (Ota),2022-10-03,03:01～04:00,0.0360,0.0319,0.0345,
大田 (Ota),2022-10-03,02:01～03:00,0.0368,0.0313,0.0343,
大田 (Ota),2022-10-03,01:01～02:00,0.0372,0.0329,0.0348,
大田 (Ota),2022-10-03,00:01～01:00,0.0370,0.0327,0.0347,
